Regional Weather Roundup
Issued by NWS Northern Indiana

Home | Current Version | Previous Version | Graphics & Text | Print | Product List | Glossary On
Versions: 1 2 3 4 5 6 7 8 9 10 11 12 13 14 15 16 17 18 19 20 21 22 23 24 25 26 27 28 29 30 31 32 33 34 35 36 37 38 39 40 41 42 43 44 45 46 47 48 49 50
000
ASUS43 KIWX 301800
RWRIWX

KIWX WEATHER ROUNDUP
NATIONAL WEATHER SERVICE NORTHERN INDIANA
200 PM EDT TUE JUN 30 2015

NOTE: "FAIR" INDICATES FEW OR NO CLOUDS BELOW 12,000 FEET WITH NO
SIGNIFICANT WEATHER AND/OR OBSTRUCTIONS TO VISIBILITY.

* THESE STATIONS ARE NOT UNDER NWS QUALITY CONTROL. THEY ALSO MAY NOT
  REPORT WEATHER SUCH AS PRECIPITATION OR FOG.

INZ001>027-301900-
NORTHERN INDIANA

CITY           SKY/WX    TMP DP  RH WIND       PRES   REMARKS
GARY*          MOSUNNY  N/A N/A N/A VRB3      29.81F
SOUTH BEND     MOSUNNY   74  62  66 NW12      29.81S
6HR MIN TEMP:  65; 6HR MAX TEMP:  74; 6HR PCP:  0.01;

ELKHART*       PTSUNNY   75  63  64 W9G16     29.80F
GOSHEN         PTSUNNY   73  64  73 SW9       29.80F
6HR MIN TEMP:  64; 6HR MAX TEMP:  73; 6HR PCP:  0.04;

MONTICELLO*    SUNNY     77  64  64 W9        29.81F
6HR MIN TEMP:  62; 6HR MAX TEMP:  77;

ANGOLA*        CLOUDY    70  63  78 SW6       29.81S
FORT WAYNE     PTSUNNY   74  64  71 W12       29.81F
6HR MIN TEMP:  63; 6HR MAX TEMP:  74; 6HR PCP:  0.07;

PERU/GRISSOM   MOSUNNY   76  65  67 W10G21    29.81F
6HR MIN TEMP:  62; 6HR MAX TEMP:  76; 6HR PCP:  0.12;


$$
INZ028>050-301900-
CENTRAL INDIANA

CITY           SKY/WX    TMP DP  RH WIND       PRES   REMARKS
LAFAYETTE      SUNNY     77  63  61 W8        29.81F
6HR MIN TEMP:  64; 6HR MAX TEMP:  77;

KOKOMO*        PTSUNNY   77  64  65 W14       29.82S
6HR MIN TEMP:  63; 6HR MAX TEMP:  77; 6HR PCP:  0.03;

MUNCIE*        MOSUNNY   75  63  66 W6G16     29.83S
6HR MIN TEMP:  66; 6HR MAX TEMP:  76; 6HR PCP:  0.02;

INDIANAPOLIS   MOSUNNY   79  63  57 W12G20    29.82F
6HR MIN TEMP:  66; 6HR MAX TEMP:  80; 6HR PCP: TRACE;


$$
MIZ043>046-050>051-056>058-064>065-071>073-077>080-301900-
SOUTHWEST LOWER MICHIGAN

CITY           SKY/WX    TMP DP  RH WIND       PRES   REMARKS
BATTLE CREEK   CLOUDY    71  63  75 W6        29.79F
6HR MIN TEMP:  64; 6HR MAX TEMP:  72; 6HR PCP: TRACE;

BENTON HARBOR  CLOUDY    65  59  81 VRB7      29.82S HAZE
6HR MIN TEMP:  63; 6HR MAX TEMP:  67;

COLDWATER*     CLOUDY    69  63  79 SW7       29.80F
6HR MIN TEMP:  62; 6HR MAX TEMP:  70;

HILLSDALE*     CLOUDY    70  65  85 SW6       29.81F
6HR MIN TEMP:  62; 6HR MAX TEMP:  70;

HOLLAND        CLOUDY    67  60  78 W9        29.80S
6HR MIN TEMP:  62; 6HR MAX TEMP:  68;

GRAND RAPIDS   CLOUDY    66  64  93 CALM      29.78F FOG
6HR MIN TEMP:  61; 6HR MAX TEMP:  66; 6HR PCP:  0.22;

KALAMAZOO      PTSUNNY   73  62  68 S8        29.79F
6HR MIN TEMP:  63; 6HR MAX TEMP:  73; 6HR PCP: TRACE;

STURGIS*       CLOUDY    70  64  83 SW7       29.80F
THREE RIVERS*  PTSUNNY   72  64  76 SW5       29.80F

$$
OHZ001>008-015>018-024>025-301900-
NORTHWEST OHIO

CITY           SKY/WX    TMP DP  RH WIND       PRES   REMARKS
DEFIANCE       CLOUDY    71  63  75 MISG      29.80F
6HR MIN TEMP:  63; 6HR MAX TEMP:  71; 6HR PCP:  0.01;

FINDLAY        LGT RAIN  67  63  87 W7        29.80F FOG
6HR MIN TEMP:  63; 6HR MAX TEMP:  70; 6HR PCP:  0.09;

TOLEDO EXPRESS CLOUDY    71  62  73 SW10      29.79F
6HR MIN TEMP:  63; 6HR MAX TEMP:  72;

TOLEDO METCALF CLOUDY    72  60  66 SW10      29.80F
6HR MIN TEMP:  64; 6HR MAX TEMP:  73;

LIMA           CLOUDY    70  64  81 W14       29.82S
6HR MIN TEMP:  64; 6HR MAX TEMP:  70; 6HR PCP:  0.14;


$$
AND FOR LAKE MICHIGAN COASTAL AND OPEN LAKE BUOY OBSERVATIONS

STATION/POSITION TEMP    WIND        PRES    VSBY  WAVE
                 AIR SEA DIR/SP/G                  HT/PER
                 (F)     (DEG/KT/KT) (MB)    (MI)  (FT/S)
CALUMET HARBOR    75     300/  3/  7   N/A
MICHIGAN CITY     67     320/  5/  5   N/A
BURNS HARBOR      68      CALM  /  1 1010.5R
SAINT JOSEPH      62     290/  7/  8 1010.8R
4 MI NW BRIDGMAN  62 65                N/A           1/ 2
MICHIGAN CITY     64 66  340/  4/  6   N/A           1
MICHIGAN CITY CG  67 70   10/  4       N/A       6   1

$$
&&


USA.gov is the U.S. government's official web portal to all federal, state and local government web resources and services.